FW4383 Weather Reports


Display with metric or nautical units.
time (UTC)temp
F
wind
direction
speed
MPH
gust
MPH
rain 1hr
in
rain 24hr
in
rain mn
in
humidity
%
barometer
mb
20260904173036 58 225 0.0 1.0 0.00 0.00 0.00 81 1016.6
20260904170035 58 143 1.0 4.0 0.00 0.00 0.00 86 1016.5
20260904164535 57 146 1.0 4.0 0.00 0.00 0.00 87 1016.4
20260904163037 56 127 0.0 3.0 0.00 0.00 0.00 87 1016.5
20260904161533 56 85 0.0 1.0 0.00 0.00 0.00 89 1016.5
20260904154534 54 224 0.0 2.0 0.00 0.00 0.00 94 1016.5
20260904153143 53 265 0.0 2.0 0.00 0.00 0.00 96 1016.4
20260904151605 52 135 0.0 2.0 0.00 0.00 0.00 97 1016.3
20260904150035 51 135 0.0 3.0 0.00 0.00 0.00 96 1016.2
20260904144535 51 135 0.0 2.0 0.00 0.00 0.00 96 1016.0
20260904143038 50 135 0.0 2.0 0.00 0.00 0.00 96 1015.9
20260904141532 50 135 0.0 0.0 0.00 0.00 0.00 96 1015.7
20260904133036 50 135 0.0 0.0 0.00 0.00 0.00 95 1015.3
20260904131607 50 135 0.0 0.0 0.00 0.00 0.00 95 1015.2
20260904130031 50 135 0.0 0.0 0.00 0.00 0.00 95 1015.0
20260904124535 50 135 0.0 0.0 0.00 0.00 0.00 95 1015.0
20260904121536 50 135 0.0 0.0 0.00 0.00 0.00 95 1014.8
20260904113035 50 135 0.0 0.0 0.00 0.00 0.00 95 1014.6
20260904104536 50 135 0.0 0.0 0.00 0.00 0.00 95 1014.2
20260904103035 50 135 0.0 0.0 0.00 0.00 0.00 95 1014.0
20260904100034 49 135 0.0 2.0 0.00 0.00 0.00 95 1013.8
20260904094605 49 135 0.0 0.0 0.00 0.01 0.00 94 1013.7
20260904093034 49 135 0.0 0.0 0.00 0.01 0.00 94 1013.7
20260904091532 49 135 0.0 0.0 0.00 0.01 0.00 94 1013.7
20260904090035 49 135 0.0 2.0 0.00 0.01 0.00 94 1013.6
20260904083036 50 135 0.0 0.0 0.00 0.01 0.00 94 1013.4
20260904081536 50 135 0.0 0.0 0.00 0.01 0.00 94 1013.4
20260904080105 50 135 0.0 1.0 0.00 0.01 0.00 93 1013.5
20260904074606 50 135 0.0 3.0 0.00 0.01 0.00 93 1013.5
20260904073032 51 135 0.0 0.0 0.00 0.01 0.00 93 1013.5
20260904071619 51 135 0.0 0.0 0.00 0.01 0.00 92 1013.4
20260904070033 51 135 0.0 1.0 0.00 0.01 0.00 92 1013.3
20260904064606 51 165 0.0 3.0 0.00 0.01 0.01 92 1013.3
20260904063036 51 247 0.0 0.0 0.00 0.01 0.01 91 1013.3
20260904061536 52 247 0.0 0.0 0.00 0.01 0.01 91 1013.2
20260904060036 53 247 0.0 0.0 0.00 0.01 0.01 91 1013.2
20260904054536 53 258 0.0 4.0 0.00 0.01 0.01 90 1013.2
20260904053031 53 137 0.0 2.0 0.00 0.01 0.01 89 1013.2
20260904051642 53 135 0.0 0.0 0.00 0.01 0.01 88 1013.2
20260904050030 53 135 0.0 1.0 0.00 0.01 0.01 88 1013.3
20260904044604 54 101 0.0 2.0 0.00 0.01 0.01 87 1013.3
20260904043032 54 352 0.0 0.0 0.00 0.01 0.01 85 1013.2
20260904041531 55 337 0.0 0.0 0.00 0.01 0.01 83 1013.2
20260904034532 55 223 0.0 6.0 0.00 0.01 0.01 82 1013.2
20260904033034 55 220 1.0 5.0 0.00 0.01 0.01 83 1013.0
20260904031535 57 247 0.0 0.0 0.00 0.01 0.01 81 1012.8
20260904030030 57 265 1.0 7.0 0.00 0.01 0.01 80 1012.8
20260904024535 58 287 1.0 4.0 0.00 0.01 0.01 80 1012.7
20260904023030 58 280 2.0 6.0 0.00 0.03 0.01 79 1012.5
20260904021534 58 306 1.0 5.0 0.00 0.04 0.01 78 1012.5
20260904020035 58 279 2.0 6.0 0.00 0.06 0.01 77 1012.5
20260904014534 59 289 3.0 9.0 0.00 0.16 0.01 76 1012.4
20260904013033 60 273 4.0 10.0 0.00 0.16 0.01 73 1012.4
20260904011535 61 271 4.0 8.0 0.00 0.16 0.01 71 1012.4
20260904010035 63 297 3.0 6.0 0.00 0.17 0.01 68 1012.3
20260904001534 60 337 1.0 6.0 0.00 0.19 0.01 77 1012.3
20260904000037 59 286 3.0 8.0 0.00 0.20 0.01 79 1012.3
20260903230034 61 272 8.0 17.0 0.00 0.22 0.01 69 1012.5
20260903224533 61 275 8.0 18.0 0.00 0.22 0.01 69 1012.5
20260903223034 61 281 8.0 18.0 0.00 0.22 0.01 70 1012.5
20260903221534 61 281 7.0 14.0 0.00 0.23 0.01 70 1012.5
20260903220034 63 284 8.0 17.0 0.00 0.23 0.01 64 1012.4
20260903214532 67 279 10.0 20.0 0.00 0.24 0.01 59 1012.2
20260903213038 68 294 5.0 12.0 0.00 0.25 0.01 58 1012.1
20260903211536 68 262 3.0 7.0 0.00 0.26 0.01 56 1012.2
20260903210036 67 292 3.0 6.0 0.00 0.26 0.01 60 1012.2
20260903204644 66 275 2.0 6.0 0.00 0.27 0.01 60 1012.3
20260903203052 67 283 2.0 5.0 0.00 0.27 0.01 61 1012.4
20260903201534 67 15 2.0 5.0 0.00 0.28 0.01 65 1012.6
20260903200036 65 1 1.0 7.0 0.00 0.28 0.01 66 1012.7
20260903193036 65 38 2.0 6.0 0.00 0.28 0.01 72 1013.2
20260903191536 63 11 1.0 4.0 0.00 0.28 0.01 76 1013.4
20260903190035 62 58 0.0 3.0 0.00 0.28 0.01 78 1013.7
20260903184543 62 32 1.0 5.0 0.00 0.28 0.01 79 1013.7
20260903183035 62 50 1.0 5.0 0.00 0.28 0.01 83 1013.8
20260903180037 58 56 1.0 6.0 0.00 0.28 0.01 92 1013.9
20260903174641 56 22 1.0 4.0 0.00 0.28 0.01 95 1014.0